KOREASAT 5A

Last updated on Tue Jul 08 2025 00:02:47 GMT+0000 (Coordinated Universal Time)

1 42984U 17067A 25188.58600227 -.00000342 00000+0 00000+0 0 9990 2 42984 0.0115 331.9813 0001419 126.0492 151.8703 1.00272314 28075
UTC large
Height (km)
Speed (km/s)
/
Latitude / Longitude
Inclination (degrees)
Orbital Period (minutes)
Azimuth
Elevation
Range (km)
Doppler Factor

Next 0 passes for location: London (51.5072 / 0.1276)

Sorry there are no passes over London.